Home   Weather   New Westminster   Past weeks

Flag for Canada Past Weather in New Westminster, British Columbia, Canada — Yesterday and Last 2 Weeks

Now
50 °F

Cool.


Feels Like: 50 °F
Forecast: 46 / 54 °F
Wind: 2 mph from East

Location: P. Meadows Coastal Station

Current Time: Apr 25, 2017 at 1:40:52 am

Latest Report: Apr 25, 2017 at 1:00 am


Visibility: N/A

Pressure: 29.90 "Hg

Humidity: 84%

Dew Point: 45 °F

Location of New WestminsterLocation

Past Weather in New Westminster — Graph

°F

New Westminster Temperature Yesterday

Maximum temperature yesterday: 60 °F (at 6:00 pm)
Minimum temperature yesterday: 45 °F (at 5:00 am)
Average temperature yesterday: 51 °F

High & Low Weather Summary for the Past Weeks

 TemperatureHumidityPressure
High68 °F (Apr 21, 6:00 pm)100% (Apr 23, 4:00 am)30.43 "Hg (Apr 23, 4:00 am)
Low36 °F (Apr 16, 5:00 am)26% (Apr 21, 6:00 pm)29.63 "Hg (Apr 12, 11:00 pm)
Average49 °F76%29.98 "Hg
* Reported Apr 10 12:00 am — Apr 25 12:00 am, New Westminster, Weather by CustomWeather, © 2017

Note: Actual official high and low records may vary slightly from our data, if they occured in-between our weather recording intervals... More about our weather records

Advertising

New Westminster Weather History for the Previous 24 Hours

Scroll right to see more
 ConditionsComfort  
Time TempWeatherWind HumidityBarometerVisibility
12:00 am
Tue, Apr 25
49 °FCool.2 mph86%29.88 "HgN/A
11:00 pm
Mon, Apr 24
49 °FCool.2 mph86%29.86 "HgN/A
10:00 pm50 °FCool.1 mph83%29.83 "HgN/A
9:00 pm49 °FCool.1 mph83%29.81 "HgN/A
8:00 pm56 °FCool.5 mph62%29.78 "HgN/A
7:00 pm58 °FRefreshingly cool.7 mph58%29.77 "HgN/A
6:00 pm60 °FRefreshingly cool.8 mph56%29.76 "HgN/A
5:00 pm59 °FRefreshingly cool.9 mph59%29.75 "HgN/A
4:00 pm58 °FRefreshingly cool.9 mph58%29.75 "HgN/A
3:00 pm58 °FRefreshingly cool.9 mph55%29.75 "HgN/A
2:00 pm58 °FRefreshingly cool.7 mph55%29.75 "HgN/A
1:00 pm56 °FRefreshingly cool.8 mph54%29.75 "HgN/A
12:00 pm53 °FCool.5 mph68%29.75 "HgN/A
11:00 am53 °FCool.2 mph62%29.75 "HgN/A
10:00 am50 °FCool.5 mph74%29.75 "HgN/A
9:00 am47 °FCool.5 mph84%29.76 "HgN/A
8:00 am46 °FCool.3 mph90%29.75 "HgN/A
7:00 am45 °FCool.7 mph92%29.75 "HgN/A
6:00 am45 °FCool.6 mph93%29.75 "HgN/A
5:00 am45 °FCool.6 mph93%29.75 "HgN/A
4:00 am45 °FCool.5 mph96%29.76 "HgN/A
3:00 am45 °FCool.7 mph93%29.77 "HgN/A
2:00 am46 °FCool.3 mph95%29.78 "HgN/A
1:00 am47 °FCool.7 mph95%29.78 "HgN/A
Weather by CustomWeather, © 2017

See weather overviewHow to use our weather pages